SCP
4 6 5 4 4 5 6 5 3 3 2 2 2 1 1 1 0 0 0 0 0 0
6 5 5 4 4 6 5 5 3 3 3 3 3 1 1 1 1 0 0 0 0 0
4 5 5 8 5 5 4 4 4 3 4 4 3 2 1 1 0 0 0 0 0 0
5 4 7 6 6 6 6 5 5 5 5 5 4 2 1 1 0 0 0 0 0 0
6 5 5 6 3 1 5 6 6 6 7 6 6 2 1 0 0 0 0 0 0 0
5 6 5 2 0 0 0 0 0 0 1 6 3 1 0 0 0 0 0 0 0 0
5 6 3 1 0 0 0 0 0 0 1 2 1 1 0 0 0 0 0 0 0 0
4 4 1 1 0 0 0 0 0 0 0 0 0 0 0 0 0 0 0 0 0 0
4 4 1 1 0 1 0 0 0 0 0 0 0 0 0 0 0 0 0 0 0 0
2 3 2 1 0 0 0 0 0 0 0 0 0 0 0 0 -0 0 0 0 0 0
2 2 2 0 0 0 0 0 0 0 0 0 0 0 -0 -0 -0 0 0 0 0 0
1 3 2 0 0 0 0 0 0 0 0 0 0 -0 0 -0 0 0 0 0 0 0
1 3 2 1 0 0 0 0 0 0 0 0 0 0 -0 -0 0 0 0 0 0 0
0 0 0 0 0 0 0 0 0 0 0 0 0 0 -0 0 0 0 0 0 0 0
Wind_Speed_500mb
97 100 94 101 93 104 101 96 90 82 77 83 83 78 71 65 53 51 47 41 37 33
104 110 105 97 96 98 99 97 90 85 85 84 89 85 76 67 62 59 48 42 41 35
104 114 112 108 93 96 97 96 88 86 92 93 93 94 82 71 65 60 48 45 41 39
96 106 115 105 91 89 96 88 84 82 78 90 83 90 88 80 69 61 51 46 46 39
94 90 97 104 99 83 89 86 78 74 77 87 80 79 88 79 70 62 53 47 48 36
86 85 78 90 93 92 79 86 78 70 70 82 85 64 81 73 74 58 51 48 45 37
83 83 79 82 98 95 85 84 81 58 25 50 49 71 93 70 71 54 50 50 41 36
79 78 74 76 94 104 82 55 77 50 31 47 42 68 54 64 63 51 55 53 40 34
74 79 81 83 89 105 98 96 71 56 40 58 43 45 78 68 63 56 57 49 39 34
44 74 82 87 94 101 101 104 80 68 81 60 51 59 54 87 75 58 52 40 37 36
41 66 62 79 98 107 110 98 69 70 69 69 79 82 88 88 65 56 43 43 40 32
35 54 68 73 77 86 87 85 88 76 80 81 106 94 89 77 71 60 55 47 38 29
41 48 47 60 65 75 89 97 74 98 85 87 90 84 82 76 67 60 52 44 34 29
28 38 36 62 67 71 89 98 104 94 93 91 88 77 69 65 58 46 46 40 38 31
Wind_Direction_500mb
226 224 217 217 217 217 218 219 219 221 219 214 215 220 223 221 221 224 224 228 233 239
226 224 219 219 217 216 217 222 227 229 219 214 216 221 219 217 217 222 220 222 232 227
228 226 224 218 216 218 222 227 231 226 222 219 218 219 219 216 218 221 216 222 224 218
227 230 227 222 217 219 222 223 225 221 214 214 216 223 221 215 213 215 215 212 215 207
228 235 232 227 221 223 216 213 214 215 214 215 214 226 224 213 211 207 209 209 205 207
227 231 235 228 218 217 216 209 196 190 203 218 216 224 231 216 211 200 206 212 205 198
225 227 228 227 218 216 210 203 168 165 161 204 209 218 235 212 208 197 198 204 200 202
224 226 225 225 221 213 201 180 178 173 167 139 149 237 224 214 211 196 196 197 196 202
218 219 225 226 222 213 203 199 202 224 244 221 232 232 208 221 215 204 199 191 191 200
258 223 220 232 221 206 205 201 205 216 209 221 192 198 222 223 215 205 193 190 194 198
281 231 219 232 227 207 204 205 221 196 205 205 200 187 212 210 205 191 184 193 196 189
267 228 205 215 219 203 202 205 190 199 187 186 186 197 196 196 188 182 185 192 184 184
269 218 210 209 206 200 192 187 179 175 187 182 177 183 189 188 183 181 184 185 186 184
249 212 192 173 184 182 186 189 182 189 180 175 175 179 181 179 181 186 190 184 174 163
Wind_Speed_850mb
97 100 94 101 93 104 101 96 90 82 77 83 83 78 71 65 53 51 47 41 37 33
104 110 105 97 96 98 99 97 90 85 85 84 89 85 76 67 62 59 48 42 41 35
104 114 112 108 93 96 97 96 88 86 92 93 93 94 82 71 65 60 48 45 41 39
96 106 115 105 91 89 96 88 84 82 78 90 83 90 88 80 69 61 51 46 46 39
94 90 97 104 99 83 89 86 78 74 77 87 80 79 88 79 70 62 53 47 48 36
86 85 78 90 93 92 79 86 78 70 70 82 85 64 81 73 74 58 51 48 45 37
83 83 79 82 98 95 85 84 81 58 25 50 49 71 93 70 71 54 50 50 41 36
79 78 74 76 94 104 82 55 77 50 31 47 42 68 54 64 63 51 55 53 40 34
74 79 81 83 89 105 98 96 71 56 40 58 43 45 78 68 63 56 57 49 39 34
44 74 82 87 94 101 101 104 80 68 81 60 51 59 54 87 75 58 52 40 37 36
41 66 62 79 98 107 110 98 69 70 69 69 79 82 88 88 65 56 43 43 40 32
35 54 68 73 77 86 87 85 88 76 80 81 106 94 89 77 71 60 55 47 38 29
41 48 47 60 65 75 89 97 74 98 85 87 90 84 82 76 67 60 52 44 34 29
28 38 36 62 67 71 89 98 104 94 93 91 88 77 69 65 58 46 46 40 38 31
Wind_Direction_850mb
226 224 217 217 217 217 218 219 219 221 219 214 215 220 223 221 221 224 224 228 233 239
226 224 219 219 217 216 217 222 227 229 219 214 216 221 219 217 217 222 220 222 232 227
228 226 224 218 216 218 222 227 231 226 222 219 218 219 219 216 218 221 216 222 224 218
227 230 227 222 217 219 222 223 225 221 214 214 216 223 221 215 213 215 215 212 215 207
228 235 232 227 221 223 216 213 214 215 214 215 214 226 224 213 211 207 209 209 205 207
227 231 235 228 218 217 216 209 196 190 203 218 216 224 231 216 211 200 206 212 205 198
225 227 228 227 218 216 210 203 168 165 161 204 209 218 235 212 208 197 198 204 200 202
224 226 225 225 221 213 201 180 178 173 167 139 149 237 224 214 211 196 196 197 196 202
218 219 225 226 222 213 203 199 202 224 244 221 232 232 208 221 215 204 199 191 191 200
258 223 220 232 221 206 205 201 205 216 209 221 192 198 222 223 215 205 193 190 194 198
281 231 219 232 227 207 204 205 221 196 205 205 200 187 212 210 205 191 184 193 196 189
267 228 205 215 219 203 202 205 190 199 187 186 186 197 196 196 188 182 185 192 184 184
269 218 210 209 206 200 192 187 179 175 187 182 177 183 189 188 183 181 184 185 186 184
249 212 192 173 184 182 186 189 182 189 180 175 175 179 181 179 181 186 190 184 174 163